Weather History for MMVA - March, 2013

Change the Weather History Date:

Tuesday, March 12, 2013

  Actual Average Record
Temperature  
Mean Temperature 70 °F -  
Max Temperature 73 °F 88 °F 95 °F (2001)
Min Temperature 66 °F 69 °F 64 °F (1998)
Cooling Degree Days 4    
Growing Degree Days 20 (Base 50)    
Moisture  
Dew Point 65 °F    
Average Humidity 86    
Maximum Humidity 94    
Minimum Humidity 69    
Precipitation  
Precipitation 1.55 in - - ()
Sea Level Pressure  
Sea Level Pressure 30.08 in    
Wind  
Wind Speed 4 mph ()    
Max Wind Speed 12 mph    
Max Gust Speed -    
Visibility 4.6 miles    
Events      
Averages and records for this station are not official NWS values.
T = Trace of Precipitation, MM = Missing Value Source: Averaged Metar Reports

Daily Weather History Graph

Daily Weather History Graph

Search for Another Location

Airport or City:

Trip Planner

Search our weather history database for the weather conditions in past years. The results will help you decide how hot, cold, wet, or windy it might be!

Date:

Astronomy

Mar. 12, 2013 Rise Set
Actual Time 6:21 AM CST 6:20 PM CST
Civil Twilight 5:59 AM CST 6:42 PM CST
Nautical Twilight 5:34 AM CST 7:07 PM CST
Astronomical Twilight 5:09 AM CST 7:32 PM CST
Moon 6:41 AM CST (3/12) 7:17 PM CST (3/12)
Length of Visible Light 12h 42m
Length of Day
11h 58m
New Moon, 1% of the Moon is Illuminated
Mar 12
New Moon
Mar 19
First Quarter
Mar 27
Full
Apr 2
Last Quarter
Apr 10
New

Hourly Weather History & Observations

Time (CST) Temp. Dew Point Humidity Pressure Visibility Wind Dir Wind Speed Gust Speed Precip Events Conditions
4:04 AM 68.0 °F 66.2 °F 94% 30.00 in 1.0 mi West 8.1 mph - N/A   Light Drizzle
4:40 AM 66.2 °F 64.4 °F 94% 30.01 in 1.0 mi West 6.9 mph - N/A   Light Drizzle
5:43 AM 66.2 °F 64.4 °F 94% 30.09 in 1.0 mi West 6.9 mph - N/A   Light Drizzle
5:53 AM 66.2 °F 64.4 °F 94% 30.02 in 1.5 mi West 5.8 mph - N/A   Light Drizzle
6:52 AM 68.0 °F 66.2 °F 94% 30.04 in 1.5 mi Calm Calm - N/A   Drizzle
7:44 AM 68.0 °F 66.2 °F 94% 30.07 in 1.5 mi WNW 4.6 mph - N/A   Light Drizzle
8:46 AM 68.0 °F 66.2 °F 94% 30.17 in 1.5 mi West 5.8 mph - N/A   Light Drizzle
9:50 AM 68.0 °F 66.2 °F 94% 30.10 in 2.0 mi WSW 4.6 mph - N/A   Light Drizzle
10:46 AM 69.8 °F 66.2 °F 88% 30.11 in 2.0 mi Calm Calm - N/A   Overcast
11:42 AM 69.8 °F 66.2 °F 88% 30.17 in 4.0 mi WNW 4.6 mph - N/A   Overcast
12:46 PM 71.6 °F 66.2 °F 83% 30.06 in 7.0 mi NW 6.9 mph - N/A   Overcast
1:41 PM 71.6 °F 66.2 °F 83% 30.05 in 7.0 mi NNW 6.9 mph - N/A   Overcast
2:43 PM 71.6 °F 64.4 °F 78% 30.12 in 7.0 mi NNW 9.2 mph - N/A   Overcast
3:43 PM 71.6 °F 64.4 °F 78% 30.02 in 7.0 mi NNW 11.5 mph - N/A   Overcast
4:43 PM 73.4 °F 62.6 °F 69% 30.01 in 7.0 mi North 4.6 mph - N/A   Overcast
5:44 PM 71.6 °F 62.6 °F 73% 30.06 in 7.0 mi NNW 4.6 mph - N/A   Overcast
6:43 PM 69.8 °F 62.6 °F 78% 30.04 in 7.0 mi North 4.6 mph - N/A   Overcast
7:43 PM 69.8 °F 62.6 °F 78% 30.06 in 7.0 mi Calm Calm - N/A   Overcast
8:51 PM 69.8 °F 62.6 °F 78% 30.13 in 7.0 mi Calm Calm - N/A   Overcast
9:46 PM 68.0 °F 64.4 °F 88% 30.11 in 7.0 mi Calm Calm - N/A   Overcast
10:43 PM 68.0 °F 64.4 °F 88% 30.12 in 7.0 mi Calm Calm - N/A   Overcast
11:42 PM 68.0 °F 64.4 °F 88% 30.17 in 7.0 mi Calm Calm - N/A   Overcast